This is the latest recevied weather packets stored in our database for station/object DG6YGE-6. If no packets are shown the sender has not sent any weather packets the latest 10 day(s).
| Time | Temp. | Humidity | Pressure | Rain* | Wind** | Luminosity | Snow |
|---|---|---|---|---|---|---|---|
| 1777833553 | 17.78° C | 68% | 1009.6 hPa | 0 mm | - | 10 W/m² | - |
| 1777832953 | 17.78° C | 68% | 1009.6 hPa | 0 mm | - | 9 W/m² | - |
| 1777832353 | 17.78° C | 67% | 1009.4 hPa | 0 mm | - | 12 W/m² | - |
| 1777831752 | 18.33° C | 67% | 1009.3 hPa | 0 mm | - | 24 W/m² | - |
| 1777831153 | 18.33° C | 66% | 1009.2 hPa | 0 mm | - | 46 W/m² | - |
| 1777830553 | 18.33° C | 66% | 1009.1 hPa | 0 mm | - | 43 W/m² | - |
| 1777829953 | 18.33° C | 65% | 1009 hPa | 0 mm | - | 48 W/m² | - |
| 1777829353 | 18.33° C | 64% | 1009 hPa | 0 mm | - | 42 W/m² | - |
| 1777828753 | 18.33° C | 64% | 1009.1 hPa | 0 mm | - | 73 W/m² | - |
| 1777828153 | 18.89° C | 63% | 1009 hPa | 0 mm | - | 62 W/m² | - |
| 1777827553 | 18.89° C | 62% | 1009.1 hPa | 0 mm | - | 30 W/m² | - |
| 1777826953 | 19.44° C | 60% | 1009 hPa | 0 mm | - | 38 W/m² | - |
| 1777826353 | 19.44° C | 60% | 1008.9 hPa | 0 mm | - | 52 W/m² | - |
| 1777825753 | 20° C | 57% | 1008.9 hPa | 0 mm | - | 70 W/m² | - |
| 1777825153 | 20.56° C | 54% | 1008.9 hPa | 0 mm | - | 86 W/m² | - |
| 1777824553 | 21.11° C | 51% | 1008.7 hPa | 0 mm | - | 113 W/m² | - |
| 1777823953 | 21.11° C | 51% | 1008.6 hPa | 0 mm | - | 155 W/m² | - |
| 1777823353 | 21.67° C | 49% | 1008.4 hPa | 0 mm | - | 205 W/m² | - |
| 1777822752 | 21.67° C | 51% | 1008.5 hPa | 0 mm | - | 231 W/m² | - |
| 1777822153 | 21.67° C | 50% | 1008.4 hPa | 0 mm | - | 270 W/m² | - |
| 1777821553 | 21.67° C | 48% | 1008.3 hPa | 0 mm | - | 161 W/m² | - |
| 1777820953 | 21.67° C | 47% | 1008.3 hPa | 0 mm | - | 127 W/m² | - |
| 1777820353 | 22.22° C | 46% | 1008.2 hPa | 0 mm | - | 102 W/m² | - |
| 1777819753 | 22.22° C | 45% | 1008.1 hPa | 0 mm | - | 118 W/m² | - |
| 1777819153 | 22.78° C | 46% | 1008.3 hPa | 0 mm | - | 237 W/m² | - |
* Rain latest hour (hover to see other rain measurements)
** Current wind speed in m/s (hover to see current wind gust speed)